Terminal Aerodrome Forecast
Issued by NWS Louisville, KY

Home | Current Version | Previous Version | Text Only | Print | Product List | Glossary On
Versions: 1 2 3 4 5 6 7 8 9 10 11 12 13 14 15
000
FTUS43 KLMK 032325
TAFSDF
TAF
KSDF 032325Z 0400/0506 27008G15KT P6SM FEW060
     FM040400 32004KT P6SM SCT250
     FM041300 29008KT P6SM SCT050 BKN250
     FM050100 VRB03KT P6SM BKN250=

USA.gov is the U.S. government's official web portal to all federal, state and local government web resources and services.